Weather History for Cincinnati, OH

Change the Weather History Date:

Sunday, February 17, 2013

  Actual Average Record
Temperature  
Mean Temperature 24 °F -  
Max Temperature 32 °F 42 °F 68 °F (2011)
Min Temperature 15 °F 25 °F 0 °F (1958)
Degree Days  
Heating Degree Days 42    
Moisture  
Dew Point 10 °F    
Average Humidity 64    
Maximum Humidity 88    
Minimum Humidity 31    
Precipitation  
Precipitation 0.00 in - - ()
Sea Level Pressure  
Sea Level Pressure 30.23 in    
Wind  
Wind Speed 5 mph (NW)    
Max Wind Speed 9 mph    
Max Gust Speed 16 mph    
Visibility 9 miles    
Events Snow    
Averages and records for this station are not official NWS values.
T = Trace of Precipitation, MM = Missing Value Source: NWS Daily Summary

Daily Weather History Graph

Daily Weather History Graph

Search for Another Location

Airport:

Trip Planner

Search our weather history database for the weather conditions in past years. The results will help you decide how hot, cold, wet, or windy it might be!

Date:

Astronomy

Feb. 17, 2013 Rise Set
Actual Time 7:26 AM EST 6:17 PM EST
Civil Twilight 6:59 AM EST 6:44 PM EST
Nautical Twilight 6:27 AM EST 7:15 PM EST
Astronomical Twilight 5:56 AM EST 7:46 PM EST
Moon 11:22 AM EST (2/17) 1:08 AM EST (2/17)
Length of Visible Light 11h 45m
Length of Day
10h 51m
Waxing Crescent, 49% of the Moon is Illuminated
Feb 17
Waxing Crescent
Feb 17
First Quarter
Feb 25
Full
Mar 4
Last Quarter
Mar 11
New

Hourly Weather History & Observations

Time (EST) Temp. Windchill Dew Point Humidity Pressure Visibility Wind Dir Wind Speed Gust Speed Precip Events Conditions
12:53 AM 21.0 °F 13.4 °F 8.1 °F 57% 30.17 in 10.0 mi WNW 5.8 mph - N/A   Overcast
1:53 AM 21.0 °F 16.2 °F 10.0 °F 63% 30.17 in 10.0 mi North 3.5 mph 16.1 mph N/A   Overcast
2:53 AM 19.9 °F 9.3 °F 15.1 °F 81% 30.18 in 4.0 mi NNW 9.2 mph - 0.00 in Snow Light Snow
3:00 AM 19.4 °F 9.5 °F 14.0 °F 80% 30.16 in 2.5 mi NNW 8.1 mph - 0.00 in Snow Light Snow
3:08 AM 19.4 °F 9.5 °F 15.8 °F 86% 30.16 in 1.2 mi North 8.1 mph - 0.00 in Snow Light Snow
3:15 AM 19.4 °F 10.4 °F 15.8 °F 86% 30.16 in 3.0 mi North 6.9 mph - 0.00 in Snow Light Snow
3:23 AM 17.6 °F 9.3 °F 14.0 °F 86% 30.16 in 5.0 mi North 5.8 mph - 0.00 in Snow Light Snow
3:33 AM 17.6 °F 12.3 °F 12.2 °F 79% 30.16 in 9.0 mi NNE 3.5 mph - 0.00 in   Mostly Cloudy
3:53 AM 16.0 °F - 12.9 °F 88% 30.18 in 10.0 mi Calm Calm - 0.00 in   Mostly Cloudy
4:53 AM 18.0 °F - 12.9 °F 81% 30.19 in 10.0 mi Calm Calm - N/A   Partly Cloudy
5:53 AM 17.1 °F 11.7 °F 12.0 °F 81% 30.21 in 10.0 mi NW 3.5 mph - N/A   Clear
6:53 AM 17.1 °F 10.0 °F 10.9 °F 77% 30.23 in 10.0 mi WNW 4.6 mph - N/A   Clear
7:53 AM 15.8 °F 10.2 °F 10.4 °F 79% 30.23 in 10.0 mi NW 3.5 mph - N/A   Clear
8:53 AM 19.0 °F 11.1 °F 12.0 °F 74% 30.27 in 10.0 mi WNW 5.8 mph - N/A   Clear
9:53 AM 21.0 °F 11.4 °F 10.0 °F 63% 30.29 in 10.0 mi NNW 8.1 mph - N/A   Clear
10:53 AM 23.0 °F 17.0 °F 7.0 °F 50% 30.30 in 10.0 mi West 4.6 mph - N/A   Clear
11:53 AM 26.1 °F 19.4 °F 7.0 °F 44% 30.30 in 10.0 mi WSW 5.8 mph - N/A   Clear
12:53 PM 28.0 °F 22.8 °F 7.0 °F 41% 30.28 in 10.0 mi WNW 4.6 mph - N/A   Clear
1:53 PM 28.0 °F 22.8 °F 3.0 °F 34% 30.27 in 10.0 mi Variable 4.6 mph - N/A   Clear
2:53 PM 30.0 °F - 3.9 °F 33% 30.25 in 10.0 mi Calm Calm - N/A   Clear
3:53 PM 32.0 °F 25.6 °F 3.9 °F 31% 30.26 in 10.0 mi WNW 6.9 mph - N/A   Clear
4:53 PM 30.9 °F 27.5 °F 3.0 °F 31% 30.25 in 10.0 mi Variable 3.5 mph - N/A   Clear
5:53 PM 28.0 °F 21.7 °F 5.0 °F 38% 30.25 in 10.0 mi SW 5.8 mph - N/A   Clear
6:53 PM 27.0 °F - 12.0 °F 53% 30.25 in 10.0 mi Calm Calm - N/A   Clear
7:53 PM 24.1 °F - 10.9 °F 57% 30.25 in 10.0 mi Calm Calm - N/A   Clear
8:53 PM 23.0 °F - 12.0 °F 63% 30.25 in 10.0 mi Calm Calm - N/A   Clear
9:53 PM 21.0 °F - 12.9 °F 71% 30.27 in 10.0 mi Calm Calm - N/A   Clear
10:53 PM 19.9 °F - 12.9 °F 74% 30.27 in 10.0 mi Calm Calm - N/A   Clear